Weather History for MRLB - August, 2013

Change the Weather History Date:

Sunday, August 4, 2013

  Actual Average Record
Temperature  
Mean Temperature 81 °F -  
Max Temperature 88 °F 87 °F 95 °F (2014)
Min Temperature 74 °F 74 °F 71 °F (2006)
Cooling Degree Days 16    
Growing Degree Days 31 (Base 50)    
Moisture  
Dew Point 71 °F    
Average Humidity 67    
Maximum Humidity 89    
Minimum Humidity 48    
Precipitation  
Precipitation 0.00 in - - ()
Sea Level Pressure  
Sea Level Pressure 29.82 in    
Wind  
Wind Speed 9 mph ()    
Max Wind Speed 112 mph    
Max Gust Speed -    
Visibility 8.5 miles    
Events      
Averages and records for this station are not official NWS values.
T = Trace of Precipitation, MM = Missing Value Source: Averaged Metar Reports

Daily Weather History Graph

Daily Weather History Graph

Search for Another Location

Airport or City:

Trip Planner

Search our weather history database for the weather conditions in past years. The results will help you decide how hot, cold, wet, or windy it might be!

Date:

Astronomy

Aug. 04, 2013 Rise Set
Actual Time 5:31 AM CST 6:04 PM CST
Civil Twilight 5:09 AM CST 6:26 PM CST
Nautical Twilight 4:43 AM CST 6:52 PM CST
Astronomical Twilight 4:17 AM CST 7:18 PM CST
Moon 3:35 AM CST (8/4) 4:26 PM CST (8/4)
Length of Visible Light 13h 17m
Length of Day
12h 33m
Waning Crescent, 4% of the Moon is Illuminated
Aug 4
Waning Crescent
Aug 6
New
Aug 14
First Quarter
Aug 20
Full
Aug 28
Last Quarter

Hourly Weather History & Observations

Time (CST) Temp. Heat Index Dew Point Humidity Pressure Visibility Wind Dir Wind Speed Gust Speed Precip Events Conditions
6:00 AM 76 °F - 72 °F 86% 29.84 in 12 mi Calm Calm - -   Overcast
6:00 AM 77.0 °F - 73.4 °F 89% 29.83 in 6.2 mi Calm Calm - N/A   Overcast
7:00 AM 77.0 °F - 73.4 °F 89% 29.84 in 6.2 mi South 4.6 mph - N/A   Overcast
8:00 AM 80.6 °F 85.4 °F 73.4 °F 79% 29.84 in 6.2 mi NNE 4.6 mph - N/A   Overcast
9:00 AM 83 °F - 73 °F 65% 29.87 in 12 mi SE 3.5 mph - -   Overcast
9:00 AM 82.4 °F 88.2 °F 73.4 °F 74% - 6.2 mi SE 3.5 mph - N/A   Mostly Cloudy
10:00 AM 86.0 °F 93.4 °F 73.4 °F 66% 29.86 in 6.2 mi WSW 9.2 mph - N/A   Mostly Cloudy
11:00 AM 86.0 °F 91.8 °F 71.6 °F 62% 29.86 in 6.2 mi ENE 13.8 mph - N/A   Overcast
12:00 PM - - 72 °F % 29.83 in 19 mi NNE 111.6 mph - -   Scattered Clouds
12:00 PM 86.0 °F 91.8 °F 71.6 °F 62% 29.82 in 6.2 mi East 12.7 mph - N/A   Overcast
1:00 PM 86.0 °F 91.8 °F 71.6 °F 62% 29.80 in 6.2 mi West 8.1 mph - N/A   Overcast
2:00 PM 87.8 °F 93.8 °F 71.6 °F 58% 29.79 in 6.2 mi West 8.1 mph - N/A   Mostly Cloudy
3:00 PM 86 °F - 69 °F 48% 29.79 in 12 mi East 10.4 mph - -   Overcast
3:00 PM 86.0 °F 90.4 °F 69.8 °F 58% 29.77 in 6.2 mi East 10.4 mph - N/A   Mostly Cloudy
4:00 PM 84.2 °F 87.3 °F 68.0 °F 58% 29.78 in - East 8.1 mph - N/A   Clear
5:00 PM 84.2 °F 87.3 °F 68.0 °F 58% 29.79 in - ESE 9.2 mph - N/A   Clear
6:00 PM 82 °F - 69 °F 56% 29.83 in 12 mi ESE 8.1 mph - -   Overcast
6:00 PM 82.4 °F 86.3 °F 69.8 °F 66% 29.82 in - ESE 8.1 mph - N/A   Clear
7:00 PM 80.6 °F 83.2 °F 68.0 °F 65% 29.82 in - ENE 9.2 mph - N/A   Clear
8:00 PM 78.8 °F - 69.8 °F 74% 29.82 in 6.2 mi SSE 3.5 mph - N/A   Mostly Cloudy